Date,TemperatureHighF,TemperatureAvgF,TemperatureLowF,DewpointHighF,DewpointAvgF,DewpointLowF,HumidityHigh,HumidityAvg,HumidityLow,PressureMaxIn,PressureMinIn,WindSpeedMaxMPH,WindSpeedAvgMPH,GustSpeedMaxMPH,PrecipitationSumIn
2013-1-1,59,43,33,44,38,32,98,84,49,30.29,30.21,7,0,10,0.00
2013-1-2,61,42,32,41,34,31,96,76,36,30.26,30.14,7,0,12,0.01
2013-1-3,61,42,32,44,36,30,96,82,46,30.29,30.17,3,0,6,0.01
2013-1-4,64,44,34,44,37,33,97,79,39,30.30,30.19,6,0,7,0.00
2013-1-5,54,44,34,48,43,33,97,94,78,30.25,30.06,7,0,10,0.45
2013-1-6,55,47,38,49,45,37,100,92,74,30.21,30.05,6,0,9,0.02
2013-1-7,57,46,36,53,44,35,99,95,82,30.27,30.17,10,1,13,0.01
2013-1-8,61,49,40,54,47,39,98,93,76,30.25,30.14,11,1,13,0.01
2013-1-9,55,46,40,52,43,38,98,91,76,30.17,30.01,20,2,26,0.03
2013-1-10,50,42,35,41,38,34,100,84,68,30.15,30.10,19,4,24,0.00
2013-1-11,50,45,36,44,40,34,93,83,73,30.27,30.14,16,3,18,0.00
2013-1-12,56,40,30,42,35,29,97,84,51,30.26,30.15,6,0,9,0.01
2013-1-13,53,37,27,40,32,26,96,85,51,30.28,30.18,7,0,9,0.01
2013-1-14,56,39,28,37,30,21,95,76,28,30.41,30.25,10,1,11,0.00
2013-1-15,59,40,30,43,34,29,100,83,42,30.49,30.41,4,0,5,0.00
2013-1-16,63,41,29,43,34,28,97,81,35,30.46,30.28,9,0,9,0.01
2013-1-17,69,44,30,46,35,28,97,77,31,30.28,30.15,6,0,9,0.01
2013-1-18,70,49,35,43,37,32,94,69,29,30.23,30.13,5,0,9,0.00
2013-1-19,69,48,33,44,36,31,93,70,28,30.25,30.16,5,0,9,0.00
2013-1-20,70,47,34,43,36,32,92,69,27,30.23,30.12,7,0,7,0.00
2013-1-21,70,48,32,42,36,30,94,67,29,30.18,30.08,6,0,11,0.00
2013-1-22,67,51,38,44,40,34,89,67,37,30.12,29.99,10,0,11,0.00
2013-1-23,56,51,47,50,46,41,97,85,66,30.09,29.96,5,0,6,0.45
2013-1-24,64,53,49,59,51,48,98,94,73,30.20,30.07,7,0,9,0.00
2013-1-25,65,53,47,58,51,46,98,93,74,30.20,30.06,16,1,19,0.00
2013-1-26,55,50,46,51,46,42,97,85,68,30.10,30.01,16,4,28,0.01
2013-1-27,53,48,42,45,41,37,89,78,65,30.21,30.08,20,7,24,0.00
2013-1-28,55,49,43,47,44,39,92,82,70,30.31,30.19,23,7,26,0.00
2013-1-29,55,49,41,49,45,39,95,85,71,30.37,30.29,18,5,23,0.00
2013-1-30,66,47,35,52,43,34,97,87,59,30.35,30.27,10,1,11,0.01
2013-1-31,71,47,35,52,42,34,98,86,44,30.31,30.20,11,1,15,0.00
2013-2-1,72,50,37,53,43,36,98,80,42,30.24,30.12,7,0,11,0.02
2013-2-2,56,48,42,51,46,40,96,92,80,30.32,30.23,13,1,14,0.00
2013-2-3,61,46,37,52,44,36,98,91,69,30.27,30.17,12,1,15,0.00
2013-2-4,54,48,43,50,46,42,99,93,85,30.19,30.09,13,2,14,0.00
2013-2-5,56,50,45,51,46,42,93,87,78,30.18,30.09,14,3,17,0.00
2013-2-6,56,45,34,49,42,33,97,90,74,30.21,30.15,14,1,15,0.01
2013-2-7,54,47,37,49,44,36,97,89,63,30.18,30.01,13,1,15,0.24
2013-2-8,53,43,36,46,40,34,98,89,67,30.03,29.96,12,1,17,0.03
2013-2-9,60,41,30,45,36,29,97,82,37,30.12,30.03,10,1,12,0.00
2013-2-10,66,43,30,52,38,29,97,85,41,30.14,30.03,10,1,11,0.01
2013-2-11,65,45,33,50,39,32,98,83,34,30.25,30.10,13,1,13,0.01
2013-2-12,64,45,36,50,42,35,97,90,57,30.38,30.25,14,2,16,0.00
2013-2-13,59,47,36,52,44,35,97,90,71,30.36,30.23,12,1,13,0.01
2013-2-14,67,49,36,52,44,35,98,85,54,30.27,30.17,10,1,12,0.01
2013-2-15,77,53,39,53,43,38,98,74,28,30.27,30.21,7,0,8,0.00
2013-2-16,64,49,39,54,46,38,97,88,63,30.25,30.08,16,3,17,0.01
2013-2-17,57,49,40,48,44,38,95,85,64,30.08,29.99,13,2,14,0.00
2013-2-18,55,47,40,45,42,39,97,83,66,30.05,29.97,17,2,21,0.00
2013-2-19,50,45,36,45,40,33,94,85,71,29.98,29.77,20,3,24,0.21
2013-2-20,55,43,30,46,38,29,97,84,65,30.08,29.88,19,4,21,0.00
2013-2-21,56,47,38,46,41,36,94,81,62,30.20,30.07,16,4,18,0.00
2013-2-22,59,45,33,47,41,32,97,86,56,30.27,30.19,15,3,20,0.00
2013-2-23,54,48,38,48,42,36,94,80,60,30.28,30.19,25,6,27,0.00
2013-2-24,57,43,31,45,37,30,97,82,48,30.28,30.18,17,2,18,0.01
2013-2-25,57,44,34,49,41,32,97,87,70,30.29,30.19,17,2,18,0.01
2013-2-26,62,44,31,46,38,30,97,83,43,30.25,30.17,15,2,17,0.00
2013-2-27,63,47,32,50,41,31,97,83,38,30.39,30.24,15,3,21,0.01
2013-2-28,57,50,44,53,48,42,97,93,86,30.47,30.39,16,3,19,0.00
2013-3-1,66,51,41,58,48,40,98,90,71,30.45,30.26,15,2,16,0.01
2013-3-2,71,51,43,59,48,42,98,91,63,30.26,30.09,15,1,17,0.00
2013-3-3,57,51,47,52,48,45,94,90,80,30.12,30.06,16,2,19,0.00
2013-3-4,60,48,40,50,44,38,94,87,67,30.16,30.07,14,2,18,0.00
2013-3-5,58,47,37,49,44,36,97,89,71,30.09,29.80,22,3,32,0.30
2013-3-6,61,50,40,50,46,38,98,85,59,30.07,29.82,15,2,23,0.14
2013-3-7,58,46,38,48,43,36,97,91,62,30.01,29.89,6,0,7,0.07
2013-3-8,54,47,38,49,44,37,97,89,78,30.06,29.87,24,5,33,0.00
2013-3-9,58,48,37,51,44,35,96,85,65,30.34,30.06,16,3,18,0.00
2013-3-10,64,48,39,54,44,38,97,86,54,30.36,30.27,15,2,18,0.01
2013-3-11,68,49,36,55,45,35,97,89,51,30.28,30.14,16,2,17,0.01
2013-3-12,64,51,46,55,48,44,97,92,72,30.18,30.11,18,3,19,0.00
2013-3-13,68,50,41,59,48,40,98,92,71,30.18,30.09,18,2,23,0.00
2013-3-14,60,50,44,53,48,42,98,92,72,30.20,30.11,16,2,20,0.01
2013-3-15,64,49,40,55,46,39,97,90,59,30.17,30.07,20,2,22,0.01
2013-3-16,60,52,47,52,48,47,100,89,74,30.16,30.06,21,5,21,0.00
2013-3-17,58,51,42,50,46,40,94,84,71,30.17,30.08,18,5,24,0.00
2013-3-18,64,48,37,52,44,36,97,86,62,30.14,30.05,14,2,18,0.00
2013-3-19,60,50,43,52,46,42,95,86,62,30.15,30.07,10,1,13,0.06
2013-3-20,60,52,46,59,50,45,97,96,92,30.17,30.06,13,1,14,0.32
2013-3-21,56,48,39,47,44,37,96,85,68,30.17,30.05,17,4,17,0.00
2013-3-22,57,46,34,47,41,32,100,84,57,30.15,30.07,17,2,17,0.01
2013-3-23,62,46,35,50,41,33,97,84,53,30.17,30.08,17,2,19,0.01
2013-3-24,58,47,36,51,43,35,97,88,72,30.11,30.01,17,2,21,0.00
2013-3-25,55,48,41,47,44,39,96,88,73,30.06,29.95,17,3,17,0.00
2013-3-26,59,50,43,50,46,41,95,85,71,30.02,29.97,15,2,16,0.00
2013-3-27,64,52,44,57,50,43,100,91,76,30.03,29.96,11,1,11,0.01
2013-3-28,70,57,51,59,53,50,95,87,65,30.10,30.01,7,1,11,0.00
2013-3-29,80,58,46,61,52,45,97,84,48,30.10,30.03,11,1,16,0.00
2013-3-30,72,56,51,57,52,49,95,87,52,30.09,30.00,13,1,15,0.11
2013-3-31,66,56,52,59,54,51,97,93,73,30.07,30.01,15,1,23,0.35
2013-4-1,66,56,48,59,53,46,97,91,67,30.17,30.05,14,1,14,0.02
2013-4-2,58,52,48,55,50,46,96,93,86,30.21,30.13,14,3,18,0.00
2013-4-3,74,54,46,63,51,45,97,90,67,30.16,30.02,14,2,17,0.01
2013-4-4,59,54,50,58,53,48,97,96,94,30.13,29.99,14,1,17,0.78
2013-4-5,60,55,53,57,54,52,100,95,87,30.21,30.13,6,0,11,0.10
2013-4-6,65,56,53,61,54,50,97,93,83,30.20,30.16,11,1,13,0.05
2013-4-7,59,55,50,56,52,47,96,90,77,30.19,29.87,24,2,32,0.12
2013-4-8,60,52,45,49,44,40,91,77,60,30.08,29.85,34,11,36,0.00
2013-4-9,61,50,38,52,46,36,97,85,67,30.14,30.08,20,4,22,0.00
2013-4-10,69,53,42,58,49,41,97,87,65,30.20,30.09,23,5,29,0.00
2013-4-11,62,52,48,53,48,46,98,86,72,30.12,29.88,20,7,25,0.00
2013-4-12,61,50,42,53,46,40,96,88,74,29.95,29.88,19,4,22,0.00
2013-4-13,57,51,46,50,46,43,94,83,68,29.94,29.86,29,8,29,0.00
2013-4-14,56,50,46,46,43,40,94,78,66,29.96,29.90,26,8,29,0.00
2013-4-15,55,49,44,46,42,40,95,79,62,30.00,29.89,33,9,36,0.00
2013-4-16,59,48,35,48,41,32,94,79,60,30.20,30.00,18,4,24,0.00
2013-4-17,64,49,35,47,41,34,96,78,35,30.30,30.20,18,3,21,0.00
2013-4-18,66,50,38,53,44,36,96,83,49,30.28,30.22,16,2,19,0.00
2013-4-19,67,53,40,57,48,39,96,84,61,30.25,30.12,17,4,22,0.00
2013-4-20,63,51,41,54,47,40,96,86,67,30.15,30.03,17,3,20,0.00
2013-4-21,70,53,40,58,48,39,97,83,56,30.05,29.96,15,2,17,0.00
2013-4-22,80,60,45,63,52,43,96,76,45,29.98,29.87,14,2,14,0.00
2013-4-23,72,55,44,56,48,41,93,80,39,29.96,29.87,16,2,16,0.00
2013-4-24,63,53,46,54,49,44,94,86,71,29.97,29.86,14,2,16,0.00
2013-4-25,60,55,52,53,50,48,92,86,77,30.15,29.97,9,1,11,0.00
2013-4-26,58,52,49,52,48,47,93,87,78,30.26,30.14,16,4,18,0.00
2013-4-27,61,52,47,55,49,46,95,90,78,30.25,30.09,17,3,21,0.00
2013-4-28,68,56,45,58,51,44,96,84,63,30.10,29.90,13,2,16,0.00
2013-4-29,69,56,48,59,51,46,98,84,66,29.92,29.82,19,4,23,0.00
2013-4-30,62,54,44,53,47,42,94,80,63,29.90,29.83,18,3,20,0.00
2013-5-1,82,67,49,53,47,36,86,53,23,30.10,30.01,10,2,12,0.00
2013-5-2,90,64,43,59,43,27,92,56,12,30.15,30.10,14,2,16,0.00
2013-5-3,76,58,42,62,48,38,90,71,42,30.10,29.82,12,2,15,0.00
2013-5-4,84,59,44,60,51,42,94,77,36,29.82,29.60,15,2,19,0.00
2013-5-5,64,57,54,55,52,51,89,82,71,29.83,29.63,24,4,24,0.00
2013-5-6,71,61,52,56,53,49,92,77,54,29.99,29.82,11,1,14,0.00
2013-5-7,74,60,53,60,55,51,94,83,59,30.07,29.97,12,2,17,0.00
2013-5-8,57,54,52,53,51,49,94,90,85,30.16,30.06,13,2,17,0.00
2013-5-9,57,53,51,53,50,49,92,88,83,30.21,30.13,15,4,18,0.00
2013-5-10,60,53,50,55,51,48,95,91,84,30.21,30.14,17,4,20,0.00
2013-5-11,67,55,50,59,52,48,95,89,72,30.18,30.09,14,3,16,0.00
2013-5-12,64,55,46,58,52,44,96,90,77,30.18,30.07,17,3,18,0.00
2013-5-13,63,55,50,57,52,48,95,89,75,30.12,29.98,17,4,20,0.00
2013-5-14,63,55,50,54,50,47,93,83,68,30.03,29.95,19,5,26,0.00
2013-5-15,59,52,50,52,49,47,93,89,74,30.08,30.01,21,7,24,0.00
2013-5-16,64,56,52,58,53,50,95,89,73,30.05,29.99,19,6,19,0.00
2013-5-17,62,55,50,53,50,46,93,82,64,30.10,29.99,21,5,23,0.00
2013-5-18,63,55,49,54,50,47,93,84,67,30.16,30.09,24,6,25,0.00
2013-5-19,67,55,43,54,49,42,95,82,57,30.15,30.02,18,3,22,0.00
2013-5-20,71,54,42,59,49,40,96,83,58,30.03,29.96,15,4,20,0.00
2013-5-21,61,54,50,52,48,43,90,80,67,30.04,29.95,30,10,33,0.00
2013-5-22,58,51,44,46,43,38,86,74,58,30.07,29.94,24,8,28,0.00
2013-5-23,61,53,47,49,46,44,89,78,61,30.04,29.94,17,7,21,0.00
2013-5-24,62,52,42,51,46,40,94,81,66,30.02,29.98,20,4,24,0.00
2013-5-25,60,53,48,51,48,45,94,84,68,30.08,29.98,23,7,28,0.00
2013-5-26,65,57,52,56,52,50,95,85,70,30.16,30.06,17,5,21,0.00
2013-5-27,63,56,52,58,54,50,95,91,82,30.15,30.00,14,2,15,0.22
2013-5-28,62,57,54,58,55,52,96,92,83,30.02,29.95,16,3,20,0.07
2013-5-29,64,57,51,57,52,48,94,85,74,30.00,29.94,26,6,29,0.00
2013-5-30,64,55,47,53,49,45,93,82,67,30.03,29.96,21,6,24,0.00
2013-5-31,70,55,43,57,49,41,95,81,60,30.04,29.96,20,4,22,0.00
2013-6-1,67,56,44,56,50,42,94,80,61,29.98,29.83,15,4,17,0.00
2013-6-2,62,55,50,55,51,48,94,86,75,29.83,29.69,17,5,21,0.00
2013-6-3,68,57,50,58,52,48,94,85,68,29.90,29.73,13,2,19,0.00
2013-6-4,61,56,53,56,52,51,92,88,80,30.00,29.88,11,1,16,0.00
2013-6-5,66,56,52,58,52,50,92,87,72,30.02,29.96,13,1,14,0.00
2013-6-6,72,57,51,61,53,49,94,86,64,29.98,29.89,14,1,18,0.00
2013-6-7,69,59,52,60,54,50,94,85,71,29.91,29.74,16,3,16,0.00
2013-6-8,78,62,52,64,56,49,94,82,61,29.84,29.73,12,1,16,0.00
2013-6-9,64,58,56,58,55,54,93,89,79,29.92,29.83,16,1,16,0.00
2013-6-10,63,58,56,58,55,53,95,89,78,29.97,29.84,11,1,13,0.07
2013-6-11,72,59,49,61,53,46,92,82,64,30.01,29.91,17,2,17,0.00
2013-6-12,64,54,43,55,49,42,96,83,67,30.03,29.93,23,6,25,0.00
2013-6-13,64,56,49,54,50,46,92,81,68,30.14,30.02,20,6,20,0.00
2013-6-14,68,55,44,57,49,42,95,83,63,30.03,29.87,15,3,19,0.00
2013-6-15,51,50,50,48,48,48,92,92,91,29.87,29.86,1,0,2,0.00
2013-6-27,70,65,57,62,59,54,89,81,73,30.11,30.05,14,4,16,0.01
2013-6-28,73,63,55,64,57,52,92,82,63,30.06,29.94,15,3,18,0.00
2013-6-29,79,64,52,65,56,50,92,78,57,29.96,29.84,16,3,19,0.00
2013-6-30,68,60,52,59,55,50,92,84,71,29.88,29.81,14,4,17,0.00
2013-7-1,78,61,52,65,56,50,92,83,58,29.88,29.82,15,3,19,0.00
2013-7-2,84,64,55,66,58,52,92,80,47,29.94,29.83,13,2,19,0.00
2013-7-3,82,64,57,65,58,54,92,82,54,29.93,29.79,13,2,16,0.00
2013-7-4,84,67,56,67,58,50,89,74,47,29.81,29.71,18,3,21,0.00
2013-7-5,64,58,53,56,52,49,90,82,72,29.80,29.74,20,5,20,0.00
2013-7-6,73,58,52,60,53,49,91,83,63,29.81,29.75,14,1,14,0.00
2013-7-7,74,61,54,61,55,50,90,81,62,29.89,29.80,10,1,14,0.00
2013-7-8,76,62,55,63,55,52,91,81,62,30.00,29.88,7,1,10,0.00
2013-7-9,67,58,53,58,53,50,92,86,71,30.05,29.98,16,3,18,0.00
2013-7-10,73,59,53,62,54,50,92,84,66,30.02,29.94,11,1,12,0.00
2013-7-11,69,57,51,59,53,49,93,86,68,29.97,29.91,11,1,14,0.00
2013-7-12,72,59,51,61,54,48,90,82,64,29.97,29.90,12,1,14,0.00
2013-7-13,76,59,49,63,53,47,93,82,60,29.98,29.91,12,1,14,0.00
2013-7-14,71,58,53,60,53,50,91,84,66,30.02,29.94,13,2,14,0.00
2013-7-15,64,56,51,57,52,49,93,88,75,29.96,29.88,6,0,9,0.00
2013-7-16,66,59,54,59,55,51,91,86,77,30.05,29.88,7,1,10,0.00
2013-7-17,66,59,55,58,54,52,92,85,75,30.12,30.04,14,3,17,0.00
2013-7-18,69,59,53,61,54,50,92,86,71,30.08,29.97,14,2,17,0.00
2013-7-19,69,58,54,60,54,51,91,85,72,29.97,29.87,15,2,17,0.00
2013-7-20,74,59,53,62,54,50,92,83,63,29.87,29.78,11,1,13,0.00
2013-7-21,77,61,53,62,54,50,91,80,57,29.90,29.78,9,1,13,0.00
2013-7-22,78,63,54,66,57,51,91,82,62,29.99,29.90,11,1,12,0.00
2013-7-23,74,62,57,63,57,54,92,85,68,30.03,29.96,10,1,10,0.00
2013-7-24,70,60,54,60,56,51,93,84,69,30.01,29.94,13,3,14,0.00
2013-7-25,74,60,54,62,55,51,92,84,64,30.06,29.95,11,2,12,0.00
2013-7-26,74,60,54,63,55,51,93,85,66,30.12,30.04,11,1,13,0.00
2013-7-27,74,59,54,62,55,51,93,85,64,30.06,29.90,11,1,15,0.00
2013-7-28,66,58,54,58,54,51,92,86,73,29.91,29.83,14,2,16,0.00
2013-7-29,63,57,55,57,53,52,90,86,78,30.04,29.85,10,1,13,0.00
2013-7-30,71,58,54,60,54,51,92,85,67,30.13,30.04,10,1,12,0.00
2013-7-31,72,59,54,61,54,51,91,83,64,30.11,30.03,18,3,19,0.00
2013-8-1,65,58,54,56,53,51,92,84,71,30.09,30.00,17,6,19,0.00
2013-8-2,69,57,51,58,52,49,93,85,68,30.00,29.93,19,4,20,0.00
2013-8-3,73,59,52,61,54,50,91,83,64,29.99,29.94,13,1,16,0.00
2013-8-4,71,58,53,60,53,50,91,84,65,30.02,29.98,14,1,16,0.00
2013-8-5,68,58,54,59,53,50,92,85,69,30.06,29.98,11,1,13,0.00
2013-8-6,72,59,53,60,54,50,91,84,64,30.06,30.00,7,1,11,0.00
2013-8-7,70,61,56,61,56,53,92,86,71,30.12,30.05,9,1,11,0.00
2013-8-8,71,59,54,60,54,51,91,86,66,30.05,29.98,14,2,15,0.00
2013-8-9,71,59,54,61,54,51,91,86,66,30.02,29.94,10,1,11,0.00
2013-8-10,67,60,56,59,56,53,91,85,74,30.07,30.00,14,3,16,0.00
2013-8-11,64,58,54,58,54,52,91,88,80,30.05,29.98,13,2,17,0.00
2013-8-12,75,61,54,63,56,52,91,83,62,30.01,29.96,12,1,12,0.00
2013-8-13,73,60,53,62,54,50,91,82,65,30.01,29.95,13,3,16,0.00
2013-8-14,71,61,54,62,56,51,90,85,70,30.00,29.93,16,5,18,0.00
2013-8-15,74,65,60,66,61,57,92,87,76,29.99,29.93,16,4,19,0.00
2013-8-16,72,62,56,64,58,53,92,88,75,30.02,29.95,17,3,20,0.00
2013-8-17,70,60,53,61,56,50,92,86,72,30.00,29.89,20,4,21,0.00
2013-8-18,76,64,56,64,58,53,91,80,63,29.89,29.80,13,2,15,0.00
2013-8-19,86,67,58,66,59,54,90,77,48,29.91,29.79,9,1,13,0.00
2013-8-20,78,64,59,64,58,56,92,84,60,29.92,29.85,13,2,18,0.00
2013-8-21,77,48,58,62,16,-100,88,56,56,29.96,29.89,9,-255,11,0.00
2013-8-22,68,37,58,60,-7,-100,85,46,69,30.00,29.92,13,-402,14,0.00
2013-8-23,65,31,58,58,-22,-100,87,41,77,29.95,29.84,15,-497,16,0.00
2013-8-24,68,29,60,60,-27,-100,88,37,74,29.92,29.85,16,-536,17,0.00
2013-8-25,79,35,63,67,-20,-100,84,37,65,29.96,29.90,7,-508,12,0.00
2013-8-26,68,29,59,59,-27,-100,87,38,71,30.03,29.93,20,-533,20,0.00
2013-8-27,70,30,59,62,-26,-100,90,38,69,29.93,29.85,16,-530,19,0.00
2013-8-28,74,35,62,66,-16,-100,90,43,73,29.96,29.86,15,-478,17,0.00
2013-8-29,74,35,63,65,-16,-100,90,43,72,30.08,29.97,16,-477,17,0.00
2013-8-30,73,33,60,64,-21,-100,88,39,72,30.05,29.95,15,-506,17,0.00
2013-8-31,69,30,58,62,-24,-100,91,41,77,30.00,29.93,15,-518,17,0.00
2013-9-1,69,34,62,63,-17,-100,90,43,75,29.97,29.91,15,-478,17,0.00
2013-9-2,77,37,62,66,-14,-100,91,42,67,29.97,29.91,13,-472,17,0.00
2013-9-3,73,33,62,62,-22,-100,87,37,65,30.02,29.95,17,-512,21,0.00
2013-9-4,73,35,62,63,-16,-100,88,41,70,30.05,29.95,18,-477,22,0.00
2013-9-5,71,34,60,62,-19,-100,87,40,69,30.04,29.96,20,-485,21,0.00
2013-9-6,81,36,62,60,-24,-100,82,28,44,30.01,29.85,15,-515,16,0.00
2013-9-7,83,36,58,64,-22,-100,86,31,49,29.88,29.83,14,-505,14,0.00
2013-9-8,71,30,56,61,-25,-100,90,37,66,29.89,29.80,12,-522,16,0.00
2013-9-9,74,32,60,63,-24,-100,89,36,64,29.83,29.74,13,-521,16,0.00
2013-9-10,71,32,61,63,-21,-100,90,41,73,29.91,29.75,10,-502,13,0.00
2013-9-11,70,18,63,63,-56,-100,88,23,77,30.01,29.90,6,-724,9,0.00
2013-9-12,68,30,59,61,-25,-100,90,40,76,30.00,29.92,15,-524,17,0.00
2013-9-13,63,31,57,58,-19,-100,92,45,82,29.93,29.79,17,-480,20,0.00
2013-9-14,67,24,59,60,-40,-100,89,31,75,29.85,29.78,15,-620,20,0.00
2013-9-15,71,35,63,61,-18,-100,89,39,67,29.88,29.79,15,-478,17,0.00
2013-9-16,71,32,58,60,-24,-100,88,37,67,29.91,29.82,16,-512,22,0.00
2013-9-17,66,32,57,58,-20,-100,85,40,71,29.92,29.83,24,-482,26,0.00
2013-9-18,78,31,55,57,-26,-100,83,32,41,29.93,29.86,16,-519,19,0.00
2013-9-19,75,30,54,60,-28,-100,89,33,55,29.87,29.79,15,-530,17,0.00
2013-9-20,79,40,52,66,-4,-100,93,48,63,29.87,29.79,10,-402,12,0.00
2013-9-21,68,29,58,65,-27,-100,93,38,72,29.92,29.79,15,-540,15,0.01
2013-9-22,68,32,58,59,-22,-100,90,38,67,30.03,29.92,15,-502,19,0.00
2013-9-23,73,33,60,64,-21,-100,90,40,72,30.03,29.96,15,-505,17,0.00
2013-9-24,69,31,59,59,-23,-100,85,37,67,30.02,29.94,25,-507,25,0.00
2013-9-25,66,31,56,54,-24,-100,79,35,61,29.97,29.86,29,-491,29,0.00
2013-9-26,67,31,54,53,-24,-100,81,33,52,30.01,29.87,16,-491,17,0.00
2013-9-27,78,31,54,49,-32,-100,78,24,27,30.11,30.01,15,-531,17,0.00
2013-9-28,76,40,56,58,-5,-100,90,44,38,30.10,30.04,15,-379,19,0.13
2013-9-29,79,62,54,66,58,51,92,86,63,30.11,30.05,10,1,14,0.02
2013-9-30,77,64,55,66,59,49,93,85,70,30.07,30.00,14,2,15,0.04
2013-10-6,71,60,52,47,42,38,72,54,32,30.03,30.01,3,0,3,0.00
2013-10-7,76,56,43,51,45,38,87,68,31,30.01,29.91,13,2,17,0.00
2013-10-8,68,53,42,55,47,39,92,80,54,29.93,29.74,15,2,16,0.00
2013-10-9,64,55,46,50,47,42,88,76,57,29.79,29.65,16,2,16,0.00
2013-10-10,71,54,42,56,47,39,91,80,55,30.03,29.77,10,0,13,0.00
2013-10-11,66,51,43,55,47,40,92,85,64,30.11,30.01,16,1,17,0.01
2013-10-12,71,52,42,56,47,39,92,83,56,30.03,29.92,15,2,20,0.00
2013-10-13,78,56,45,56,48,42,92,77,38,30.08,29.95,12,1,18,0.00
2013-10-14,76,54,39,50,43,37,95,71,32,30.13,30.02,11,1,14,0.01
2013-10-15,82,56,40,49,40,32,90,62,18,30.05,29.98,14,1,15,0.00
2013-10-16,88,57,40,48,41,33,87,61,17,30.08,30.01,13,1,14,0.00
2013-10-17,77,54,40,50,43,36,88,69,24,30.10,29.99,13,1,14,0.00
2013-10-18,62,52,47,54,48,44,91,86,72,30.08,30.01,15,2,16,0.00
2013-10-19,65,50,40,55,46,38,93,86,68,30.10,30.03,15,2,16,0.00
2013-10-20,61,50,44,54,47,42,93,89,77,30.06,29.95,15,2,17,0.00
2013-10-21,62,52,48,54,48,46,92,88,74,30.02,29.94,13,1,15,0.00
2013-10-22,58,51,47,54,48,45,92,89,81,30.04,29.96,16,2,18,0.00
2013-10-23,58,50,47,53,48,45,92,90,82,30.00,29.94,16,2,17,0.00
2013-10-24,59,52,46,52,48,42,91,86,74,30.13,29.99,11,1,12,0.00
2013-10-25,61,50,41,53,46,38,97,86,72,30.19,30.11,19,2,19,0.01
2013-10-26,63,49,38,55,45,36,93,87,73,30.17,30.06,14,2,16,0.01
2013-10-27,59,53,49,54,49,46,92,86,75,30.06,29.69,23,3,33,0.00
2013-10-28,60,54,48,51,49,45,90,82,68,29.84,29.68,20,4,26,0.00
2013-10-29,68,52,43,54,47,41,92,83,55,30.07,29.84,10,1,12,0.00
2013-10-30,72,52,42,55,46,40,92,82,51,30.16,30.07,12,1,15,0.00
2013-10-31,77,52,38,53,45,36,92,79,39,30.19,30.09,9,0,11,0.00
2013-11-1,80,54,40,53,44,38,92,74,30,30.16,30.03,14,1,14,0.00
2013-11-2,61,51,42,54,47,39,92,86,72,30.06,29.93,13,1,18,0.00
2013-11-3,60,48,36,48,42,33,97,80,55,30.08,29.95,13,2,16,0.00
2013-11-4,60,46,34,48,41,31,92,81,51,30.12,29.95,17,2,18,0.00
2013-11-5,78,51,36,49,41,33,92,75,31,30.23,30.10,9,0,10,0.00
2013-11-6,78,54,40,51,42,34,92,70,22,30.27,30.17,9,0,12,0.00
2013-11-7,67,54,46,53,47,41,91,78,47,30.18,30.09,15,2,17,0.00
2013-11-8,69,52,44,56,48,41,93,84,57,30.10,29.99,15,1,18,0.00
2013-11-9,79,53,38,54,46,36,93,79,37,30.06,29.97,7,0,10,0.00
2013-11-10,69,54,44,55,48,41,92,82,59,30.13,30.03,6,0,10,0.00
2013-11-11,69,52,43,56,48,40,92,84,59,30.18,30.08,7,0,9,0.00
2013-11-12,68,56,49,56,50,46,90,81,64,30.28,30.16,10,1,12,0.00
2013-11-13,64,52,43,57,49,41,92,89,76,30.28,30.13,13,1,16,0.00
2013-11-14,59,53,51,55,50,47,93,88,79,30.14,29.92,16,3,18,0.00
2013-11-15,60,50,40,49,45,37,92,82,59,29.92,29.75,17,2,18,0.00
2013-11-16,60,49,37,52,45,35,93,86,70,29.94,29.79,14,3,21,0.00
2013-11-17,68,50,40,54,46,37,96,85,57,30.10,29.94,6,0,7,0.00
2013-11-18,60,48,37,52,44,34,93,86,70,30.16,30.09,10,0,11,0.00
2013-11-19,56,55,52,54,52,49,93,91,87,30.10,29.93,7,0,11,0.70
2013-11-20,58,55,50,56,52,48,93,92,90,29.94,29.86,11,1,14,0.27
2013-11-21,65,56,49,52,37,22,93,57,24,29.98,29.91,9,0,12,0.00
2013-11-22,76,59,43,34,22,12,60,27,10,30.03,29.91,7,0,11,0.00
2013-11-23,72,51,38,42,35,25,88,59,23,30.12,29.96,5,0,7,0.00
2013-11-24,70,48,36,51,41,34,95,78,36,30.27,30.12,5,0,9,0.00
2013-11-25,70,48,35,51,41,33,92,80,41,30.33,30.25,6,0,6,0.01
2013-11-26,68,50,38,50,41,36,92,76,42,30.28,30.05,5,0,9,0.00
2013-11-27,69,54,44,48,44,40,88,72,44,30.05,29.85,7,0,10,0.00
2013-11-28,74,51,42,53,43,39,92,77,39,30.09,29.87,10,0,12,0.00
2013-11-29,66,48,38,53,43,35,91,84,61,30.24,30.08,16,0,17,0.00
2013-11-30,60,47,40,53,44,38,97,88,75,30.29,30.20,11,1,13,0.01
2013-12-1,68,49,37,53,44,35,93,85,52,30.35,30.24,12,0,12,0.01
2013-12-2,60,50,38,54,47,36,93,89,77,30.25,29.98,15,2,19,0.01
2013-12-3,53,48,33,50,40,30,91,75,60,29.98,29.86,20,5,26,0.01
2013-12-4,59,39,28,41,32,26,91,78,45,30.11,29.97,5,0,7,0.00
2013-12-5,58,36,25,38,29,23,91,77,39,30.17,30.10,5,0,9,0.00
2013-12-6,51,40,26,48,35,23,91,86,54,30.20,29.93,14,1,18,0.91
2013-12-7,48,40,28,44,33,25,89,75,51,30.28,29.94,19,3,25,0.00
2013-12-8,51,35,27,37,27,21,91,76,36,30.35,30.23,4,0,6,0.00
2013-12-9,55,35,24,36,26,22,91,74,31,30.44,30.33,4,0,5,0.01
2013-12-10,60,38,26,41,30,23,91,76,32,30.43,30.22,9,0,12,0.00
2013-12-11,62,41,28,40,31,26,91,73,32,30.26,30.18,9,0,9,0.01
2013-12-12,66,44,33,45,36,30,89,75,33,30.27,30.17,9,0,12,0.00
2013-12-13,60,44,36,48,39,33,92,82,53,30.35,30.25,9,0,11,0.00
2013-12-14,66,43,31,48,38,29,97,85,37,30.41,30.31,11,1,13,0.00
2013-12-15,70,44,33,48,38,31,93,84,33,30.38,30.25,11,0,13,0.01
2013-12-16,74,51,36,44,39,33,91,66,26,30.26,30.11,6,0,9,0.01
2013-12-17,73,52,39,46,40,35,87,66,31,30.18,30.04,5,0,7,0.00
2013-12-18,53,46,37,49,43,34,90,87,83,30.05,29.79,18,4,23,0.00
2013-12-19,56,46,33,45,40,30,90,80,59,29.97,29.75,22,4,25,0.00
2013-12-20,58,41,30,45,35,27,92,80,40,30.03,29.94,13,0,13,0.00
2013-12-21,56,49,38,51,46,35,91,89,82,30.10,29.99,16,3,19,0.01
2013-12-22,65,46,36,51,40,34,93,82,49,30.30,30.10,11,0,11,0.00
2013-12-23,72,48,36,49,40,33,92,78,34,30.40,30.30,9,0,10,0.01
2013-12-24,71,48,38,50,42,36,94,81,45,30.36,30.21,8,0,12,0.00
2013-12-25,73,48,35,50,38,32,92,73,30,30.30,30.20,6,0,9,0.01
2013-12-26,75,50,36,47,37,33,90,68,25,30.26,30.16,6,0,9,0.00
2013-12-27,65,47,36,47,38,33,89,75,41,30.23,30.14,13,0,14,0.00
2013-12-28,61,42,31,46,36,28,91,82,52,30.17,30.04,9,0,10,0.00
2013-12-29,71,45,32,42,34,30,90,71,23,30.19,30.10,7,0,8,0.01
2013-12-30,72,48,35,45,38,31,92,71,30,30.26,30.17,10,0,10,0.00
2013-12-31,61,43,35,49,40,32,91,87,57,30.29,30.17,13,1,15,0.00
2014-1-1,56,43,32,50,39,30,92,87,60,30.22,30.14,10,1,12,0.00
2014-1-2,74,48,36,52,39,33,93,76,30,30.18,30.06,6,0,9,0.01